This demonstration page uses our WeatherBlox Daily Observations layout. Learn more.

41.55636, -103.73856

Hourly Observations for June 23, 2020

Temp ( °F °C ) Dew Point ( °F °C ) Humidity (%) Winds ( mph kmh ) Pressure ( in mb ) Visibility ( mi km ) Precip ( " mm )
12:58 am 00:58 Clear 76 24.2 46 7.7 35 35 E 10 17 30.02 1017 10 16.0934 0 0
1:58 am 01:58 Clear 69 20.6 49 9.6 49 49 ENE 17 28 30.04 1017 10 16.0934 0 0
2:58 am 02:58 Clear 62 16.6 49 9.4 63 63 ESE 12 19 30.06 1018 10 16.0934 0 0
3:58 am 03:58 Clear 61 16.3 48 8.8 61 61 ESE 12 19 30.08 1019 10 16.0934 0 0
4:58 am 04:58 Clear 59 14.9 47 8.6 66 66 SE 9 15 30.09 1019 10 16.0934 0 0
5:58 am 05:58 Mostly Clear 55 12.9 47 8.4 74 74 SSW 6 9 30.11 1020 10 16.0934 0 0
6:58 am 06:58 Clear 55 12.5 47 8.1 75 75 SSW 6 9 30.11 1020 10 16.0934 0 0
7:58 am 07:58 Clear 52 11.1 46 8 81 81 SSW 6 9 30.12 1020 10 16.0934 0 0
8:58 am 08:58 Mostly Cloudy 57 13.7 48 8.8 72 72 SSW 9 15 30.09 1019 10 16.0934 0 0
9:58 am 09:58 Partly Cloudy 59 14.9 48 8.7 67 67 WSW 7 11 30.09 1019 10 16.0934 0 0
10:58 am 10:58 Mostly Cloudy 57 13.8 47 8.6 71 71 NW 3 6 30.09 1019 10 16.0934 0 0
11:58 am 11:58 Mostly Cloudy 58 14.6 47 8.6 67 67 Calm 30.09 1019 10 16.0934 0 0
12:58 pm 12:58 Sunny 62 16.6 49 9.5 63 63 NNW 3 6 30.08 1019 10 16.0934 0 0
1:58 pm 13:58 Mostly Sunny 68 19.8 49 9.6 52 52 NNE 6 9 30.09 1019 10 16.0934 0 0
2:58 pm 14:58 Mostly Sunny 71 21.6 47 8.5 43 43 Calm 30.08 1019 10 16.0934 0 0
3:58 pm 15:58 Sunny 75 23.7 44 6.8 34 34 Calm 30.05 1018 10 16.0934 0 0
4:58 pm 16:58 Sunny 76 24.7 45 7 32 32 Calm 30.04 1017 10 16.0934 0 0
5:58 pm 17:58 Partly Cloudy 79 26.2 44 6.4 28 28 Calm 30.03 1017 10 16.0934 0 0
6:58 pm 18:58 Mostly Cloudy 78 25.7 41 5 26 26 S 6 9 30.03 1017 10 16.0934 0 0
7:58 pm 19:58 Mostly Sunny 81 27.4 43 6.2 26 26 ENE 7 11 30.02 1017 10 16.0934 0 0
8:58 pm 20:58 Sunny 83 28.1 43 6.1 25 25 N 6 9 29.98 1015 10 16.0934 0 0
9:58 pm 21:58 Sunny 84 28.8 40 4.6 21 21 E 9 15 29.95 1014 10 16.0934 0 0
10:58 pm 22:58 Sunny 85 29.6 41 5 21 21 NNE 9 15 29.94 1014 10 16.0934 0 0
11:58 pm 23:58 Sunny 82 27.9 40 4.5 22 22 ENE 7 11 29.93 1014 10 16.0934 0 0

Powered by AerisWeather